Zurück zum Katalog

YURI 2A

BS-2A

AktivKommunikationGEO
NORAD 14659·PAYLOAD·🇯🇵 Japan

Gestartet Jan 23, 1984 von Tanegashima Space Center

Loading…

TLE

AktuellSource: Space-Track

Epoche: Sep 14, 2026, 12:02 UTC

1 14659U 84005A   26257.50184678 -.00000101  00000-0  00000-0 0  9996
2 14659  10.9289 324.1004 0017253 225.3203 177.2159  0.99052665119202

Verfolge YURI 2A in Echtzeit mit AllMySat

Download on the App Store